Погода в Ивделе

Погода в Ивделе : погода сейчас, прогноз погоды и архив. Всё, что Вы хотите узнать о погоде в Ивделе!

Хотите узнать прогноз погоды в Ивделе? Тогда Вам сюда: Погода в Ивделе

Поиск расширенной информации на нашем сайте:

Другие новости

Новости СМИ2

Главная страница сайта

Новости сайта

03.07.2017

Напоминаем, что на нашем специализированном сайте Метеоцентр.Азия вы можете получить высокодетализированные автоматические прогнозы погоды по пунктам России, СНГ и мира в авиационном формате (включающие направление и скорость ветра, видимость, явления погоды, количество и форму облачности, нижнюю и верхнюю границу облачности).


Погода в Ивделе - сегодня

Время (UTC), дата Ветер
(°,м/с) 
Видим.   Явления Облачность Т
(°С)
Тd
(°С)
f(%) Тe
(°С)
Pmin
(гПа)
dP
(гПа)
Po
(мм)
O2
(г/м3)
Тmin Tmax R s Состояние
почвы
03 17.05.18 тихо ()   20000 м    9/4 1000 м средняя 
[Sc|Ac trans]
+4.4 -3.5 56 +4  1015.9  -0.7  753  299  -2.3        влажная 
06 17.05.18 250 (З) 2{10}  20000 м    5/0 средняя, верхняя 
[Ac lent|Cc]
+12 -8.6 23 +12  1013.6  -2  752  291           
09 17.05.18 290 (З) 5{10}  20000 м    9/5 1000 м средняя, верхняя 
[Sc|Ac trans|Ci fib]
+13.8 -8.3 21 +13  1012.1  -1.4  751  289           
18 17.05.18 020 (С) 20000 м    9/9 600 м кучево-дожд. 
[Cb cap]
+10.3 -3 39 +10  1011.8  0.3  750  292           
21 17.05.18 360 (С) 10 км  слаб. ливневой дождь  10/10 600 м кучево-дожд. 
[Cb cap]
+5.9 -0.3 64 +4  1013.2  1.2  751  296           
03 18.05.18 030 (СВ) 20000 м    3/3 1000 м верхняя 
[Sc|Ci fib]
+2.8 -7.5 47 +2  1020.5  757  303  +1.5    0.5    влажная 
06 18.05.18 120 (ЮВ) 20000 м    3/0 верхняя 
[Ci fib]
+5.5 -10 32 +4  1021.4  757  300           
09 18.05.18 200 (Ю) 20000 м    3/0 верхняя 
[Ci fib]
+8.5 -11.1 24 +10  1021.3  757  297           
12 18.05.18 200 (Ю) н/о    н/о 
+10.7 -10.8 21 +11  1021.6  0.4  758  295           
18 18.05.18 310 (СЗ) 20000 м    6/0 верхняя 
[Ci fib]
+0.8 -5.8 61 +1  1021.7  -0.3  757  305           
21 18.05.18 тихо ()   10 км    8/3 1000 м средняя, верхняя 
[Sc|Ac trans|Ci fib]
-1.7 -4.9 79 -2  1022.1  0.3  758  308           
00 19.05.18 тихо ()   20000 м    9/5 1000 м средняя, верхняя 
[Sc|Ac trans|Ci fib]
-2.3 -4.7 84 -2  1021  -1.1  757  308           
03 19.05.18 150 (ЮВ) 20000 м    6/0 средняя 
[Ac trans]
+6.4 -6.9 38 +5  1018.1  -2.4  755  298  -2.4        сухая 
06 19.05.18 170 (Ю) 20000 м    9/4 1000 м средняя 
[Sc|Ac trans]
+9.6 -6.4 32 +9  1016.1  -1.9  753  294           
09 19.05.18 170 (Ю) 5{11}  20000 м    10/8 1000 м средняя 
[Sc|Ac trans]
+12.4 -3.7 32 +12  1014  -1.9  752  290           
12 19.05.18 150 (ЮВ) 5{12}  40000 м    10/6 1000 м средняя 
[Sc|Ac trans]
+12.1 -0.7 41 +11  1012.2  -1.8  751  290           
18 19.05.18 160 (Ю) 20000 м  {ливн. осадки}  10/10 600 м кучево-дожд. 
[Cb cap]
+6 +3.9 86 +5  1008.9  -1.8  748  294           
21 19.05.18 190 (Ю) 10 км  слаб. ливневой дождь  10/10 600 м кучево-дожд. 
[Cb cap]
+5.3 +4.1 92 +6  1006  -2.9  746  294           
03 20.05.18 тихо ()   0800 м  туман{ливн. осадки}  10/10 210 м 
[St]
+6.9 +5.9 93 +7  1001.5  -1.4  743  291  +5.2      мокрая 
06 20.05.18 230 (ЮЗ) 30000 м  {ливн. осадки, туман}  8/6 600 м кучево-дожд., средняя 
[Cb cap|Ac trans]
+19 +12.6 66 +26  1000.4  -0.6  742  277           
18 20.05.18 310 (СЗ) 2{11}  20000 м    9/9 600 м кучево-дожд. 
[Cb cap]
+7.1 +1.2 66 +7  1010.3  4.5  749  294           
21 20.05.18 330 (СЗ) 2{10}  10 км    8/8 1000 м 
[Sc]
+5.2 -0.5 67 +5  1013.5  3.1  751  297           
00 21.05.18 320 (СЗ) 20000 м    10/10 900 м кучево-дожд. 
[Cb cap]
+4.4 -2 63 +4  1016.4  2.8  754  299           
03 21.05.18 330 (СЗ) 20000 м    10/10 900 м кучево-дожд. 
[Cb cap]
+4.8 -2.3 60 +4  1019  2.5  755  299  +4.2        влажная 
06 21.05.18 280 (З) 3{11}  20000 м    9/9 1000 м 
[Sc]
+8 -2.2 48 +7  1020.2  1.3  756  296           
Время (UTC), дата Ветер
(°,м/с) 
Видим.   Явления Облачность Т
(°С)
Тd
(°С)
f(%) Тe
(°С)
Pmin
(гПа)
dP
(гПа)
Po
(мм)
O2
(г/м3)
Тmin Tmax R s Состояние
почвы

Для получения пояснительной информации подведите курсор к названию столбца.

ПОГОДА в Ивделе - архив

Всё, что Вы хотите узнать о погоде в Ивделе - удобно и подробно!

Выберите нужную дату (начиная с 1 января 2015* года) и нажмите кнопку "Найти".
Будут отображены архивные сводки погоды по пункту Ивдель, начиная с указанной даты.


Отображать данные в формате CSV (для использования в таблицах Excel)


Внимание! Наш архив погоды предназначен исключительно для личного некоммерческого использования в познавательных целях. Если Вам необходимы официальные справки о состоянии погоды (для производственных, юридических, коммерческих и т.п. целей), обращайтесь в органы Росгидромета.

*Примечание: данная дата относится к архиву по метеостанциям СССР (Россия, СНГ, Балтия).
Архив по метеостанциям Зарубежной Европы и Азии (кроме Китая) хранится 10 дней, по другим регионам земного шара (Китай, Африка, Америка, Австралия, Океания) - 1 день.

Ивдель - район местоположения метеостанции


Название, широта, долгота, высота метеостанции:
Ивдель 60.7°ш. 60.4°д. 95 м над ур. моря [Российская Федерация]

Дополнительная информация

В oтличие oт бoльшинства пoгoдных сайтoв мы публикуем пoдрoбную метеoинфoрмацию в детальнoм прoфессиoнальнoм фoрмате.

Характеристики температуры и влажнoсти вoздуха измеряются на высoте 2 м в тени вдали oт зданий и деревьев.
Скoрoсть ветра измеряется на высoте 10 м (на урoвне рoста челoвека скoрoсть ветра ниже в 1.5-2 раза). Если метеoстанция нахoдится в гoрoде или в лесу, тo скoрoсть ветра занижена на 2-4 м/с пo сравнению с oткрытым местoм. Скoрoсть ветра над акватoриями крупных рек и oзёр, а также на вершинах хoлмoв на 2-5 м/с выше, чем в oбычных услoвиях.
Атмoсфернoе давление в разных тoчках местнoсти мoжет значительнo oтличаться oт давления на метеoстанции, в зависимoсти oт услoвий рельефа (при пoдъёме на 10 м давление пoнижается примернo на 1 мм рт.ст.).